When you browse on this site, cookies collect data to enhance your experience and personalize the content and advertising you see.
Visit our Privacy Policy to learn more. By continuing to use the site, you agree to this use of cookies and data.
  • Em Portugal
  • Lista de países
  • Para 7 dias
  • Temperatura da água
  • Mapa do tempo
  • Widgets de tempo
  • user-avatar
    Iniciar Sessão

    Previsão horária em Klodne

    Hoje, 27 Janeiro, Segunda-feira

    Tempo Temperatura Precipitação Vento Pressão Humidade
    00:00 -1°C° 0 mm 1 m/s 715 mmHg 73%
    01:00 -1°C° 0 mm 1 m/s 715 mmHg 73%
    02:00 -1°C° 0 mm 1 m/s 714 mmHg 73%
    03:00 -1°C° 0 mm 1 m/s 714 mmHg 72%
    04:00 -1°C° 0 mm 1 m/s 714 mmHg 72%
    05:00 -1°C° 0 mm 1 m/s 714 mmHg 73%
    06:00 -1°C° 0 mm 1 m/s 714 mmHg 75%
    07:00 -1°C° 0 mm 1 m/s 713 mmHg 76%
    08:00 0°C° 0 mm 1 m/s 714 mmHg 74%
    09:00 +1°C° 0 mm 1 m/s 714 mmHg 71%
    10:00 +2°C° 0 mm 1 m/s 714 mmHg 69%
    11:00 +3°C° 0 mm 1 m/s 714 mmHg 68%
    12:00 +3°C° 0 mm 0 m/s 714 mmHg 67%
    13:00 +4°C° 0 mm 0 m/s 713 mmHg 66%
    14:00 +3°C° 0 mm 0 m/s 713 mmHg 72%
    15:00 +2°C° 0 mm 0 m/s 713 mmHg 77%
    16:00 +1°C° 0 mm 0 m/s 712 mmHg 82%
    17:00 +1°C° 0 mm 1 m/s 712 mmHg 84%
    18:00 +1°C° 0 mm 1 m/s 712 mmHg 85%
    19:00 0°C° 0 mm 1 m/s 712 mmHg 87%
    20:00 0°C° 0 mm 1 m/s 711 mmHg 87%
    21:00 0°C° 0 mm 1 m/s 711 mmHg 88%
    22:00 0°C° 0 mm 1 m/s 711 mmHg 88%
    23:00 -2°C° 0 mm 2 m/s 710 mmHg 88%

    Amanhã, 28 Janeiro, Terça-feira

    Tempo Temperatura Precipitação Vento Pressão Humidade
    00:00 -2°C° 0 mm 2 m/s 710 mmHg 88%
    01:00 -2°C° 0 mm 2 m/s 710 mmHg 89%
    02:00 -2°C° 0 mm 2 m/s 709 mmHg 88%
    03:00 -2°C° 0 mm 2 m/s 708 mmHg 88%
    04:00 -2°C° 0 mm 2 m/s 708 mmHg 87%
    05:00 -2°C° 0 mm 2 m/s 707 mmHg 87%
    06:00 -2°C° 0 mm 3 m/s 707 mmHg 86%
    07:00 -2°C° 0 mm 3 m/s 707 mmHg 86%
    08:00 -1°C° 0 mm 3 m/s 706 mmHg 82%
    09:00 -1°C° 0 mm 4 m/s 706 mmHg 78%
    10:00 0°C° 0 mm 4 m/s 705 mmHg 74%
    11:00 0°C° 0 mm 4 m/s 705 mmHg 75%
    12:00 +1°C° 0 mm 4 m/s 704 mmHg 75%
    13:00 +2°C° 0 mm 3 m/s 704 mmHg 76%
    14:00 +2°C° 0 mm 3 m/s 703 mmHg 79%
    15:00 +1°C° 0 mm 3 m/s 703 mmHg 83%
    16:00 +1°C° 0 mm 2 m/s 702 mmHg 86%
    17:00 +1°C° 0.3 mm 2 m/s 702 mmHg 89%
    18:00 +1°C° 0.3 mm 2 m/s 702 mmHg 92%
    19:00 +1°C° 0.3 mm 2 m/s 701 mmHg 95%
    20:00 +1°C° 0.6 mm 2 m/s 701 mmHg 95%
    21:00 +1°C° 0.6 mm 2 m/s 701 mmHg 96%
    22:00 +1°C° 0.6 mm 2 m/s 701 mmHg 96%
    23:00 -1°C° 0.1 mm 2 m/s 701 mmHg 92%

    Depois de amanhã, 29 Janeiro, Quarta-feira

    Tempo Temperatura Precipitação Vento Pressão Humidade
    00:00 -1°C° 0.1 mm 3 m/s 701 mmHg 88%
    01:00 -2°C° 0.1 mm 4 m/s 701 mmHg 84%
    02:00 -2°C° 0 mm 4 m/s 702 mmHg 82%
    03:00 -3°C° 0 mm 4 m/s 702 mmHg 80%
    04:00 -3°C° 0 mm 4 m/s 702 mmHg 78%
    05:00 -3°C° 0 mm 4 m/s 702 mmHg 80%
    06:00 -4°C° 0 mm 3 m/s 703 mmHg 81%
    07:00 -4°C° 0 mm 3 m/s 703 mmHg 82%
    08:00 -3°C° 0 mm 4 m/s 703 mmHg 79%
    09:00 -3°C° 0 mm 4 m/s 703 mmHg 76%
    10:00 -2°C° 0 mm 5 m/s 704 mmHg 73%
    11:00 -1°C° 0 mm 5 m/s 704 mmHg 70%
    12:00 -2°C° 0 mm 6 m/s 704 mmHg 68%
    13:00 -1°C° 0 mm 6 m/s 704 mmHg 65%
    14:00 -1°C° 0 mm 5 m/s 704 mmHg 68%
    15:00 -1°C° 0 mm 5 m/s 704 mmHg 72%
    16:00 -2°C° 0 mm 4 m/s 704 mmHg 75%
    17:00 -2°C° 0 mm 4 m/s 704 mmHg 80%
    18:00 -3°C° 0 mm 4 m/s 705 mmHg 85%
    19:00 -3°C° 0 mm 4 m/s 705 mmHg 90%
    20:00 -3°C° 0.3 mm 4 m/s 705 mmHg 92%
    21:00 -3°C° 0.3 mm 4 m/s 705 mmHg 94%
    22:00 -4°C° 0.3 mm 5 m/s 706 mmHg 96%
    23:00 -4°C° 0.5 mm 5 m/s 706 mmHg 97%

    30 Janeiro, Quinta-feira

    Tempo Temperatura Precipitação Vento Pressão Humidade
    00:00 -3°C° 0.5 mm 4 m/s 707 mmHg 97%
    01:00 -3°C° 0.5 mm 4 m/s 707 mmHg 97%
    02:00 -4°C° 0.8 mm 5 m/s 708 mmHg 96%
    03:00 -4°C° 0.8 mm 5 m/s 708 mmHg 94%
    04:00 -4°C° 0.8 mm 6 m/s 709 mmHg 93%
    05:00 -4°C° 0.2 mm 6 m/s 710 mmHg 93%
    06:00 -4°C° 0.2 mm 6 m/s 710 mmHg 94%
    07:00 -5°C° 0.2 mm 6 m/s 711 mmHg 94%
    08:00 -4°C° 0.1 mm 6 m/s 711 mmHg 90%
    09:00 -4°C° 0.1 mm 6 m/s 712 mmHg 87%
    10:00 -3°C° 0.1 mm 6 m/s 712 mmHg 84%
    11:00 -3°C° 0 mm 6 m/s 712 mmHg 82%
    12:00 -3°C° 0 mm 6 m/s 712 mmHg 79%
    13:00 -2°C° 0 mm 6 m/s 713 mmHg 77%
    14:00 -2°C° 0 mm 5 m/s 712 mmHg 79%
    15:00 -1°C° 0 mm 3 m/s 712 mmHg 81%
    16:00 -2°C° 0 mm 2 m/s 712 mmHg 83%
    17:00 -2°C° 0 mm 2 m/s 712 mmHg 83%
    18:00 -2°C° 0 mm 2 m/s 712 mmHg 83%
    19:00 -3°C° 0 mm 2 m/s 712 mmHg 83%
    20:00 -3°C° 0 mm 2 m/s 712 mmHg 83%
    21:00 -3°C° 0 mm 2 m/s 712 mmHg 83%
    22:00 -3°C° 0 mm 2 m/s 712 mmHg 83%
    23:00 -3°C° 0 mm 2 m/s 712 mmHg 83%

    31 Janeiro, Sexta-feira

    Tempo Temperatura Precipitação Vento Pressão Humidade
    00:00 -3°C° 0 mm 2 m/s 712 mmHg 83%
    01:00 -3°C° 0 mm 2 m/s 712 mmHg 83%
    02:00 -3°C° 0 mm 2 m/s 711 mmHg 83%
    03:00 -3°C° 0 mm 2 m/s 711 mmHg 83%
    04:00 -3°C° 0 mm 2 m/s 711 mmHg 83%
    05:00 -2°C° 0 mm 2 m/s 711 mmHg 82%
    06:00 -2°C° 0 mm 2 m/s 711 mmHg 80%
    07:00 -2°C° 0 mm 2 m/s 711 mmHg 79%
    08:00 -1°C° 0 mm 2 m/s 711 mmHg 77%
    09:00 0°C° 0 mm 3 m/s 710 mmHg 74%
    10:00 +1°C° 0 mm 3 m/s 710 mmHg 72%
    11:00 +1°C° 0.3 mm 3 m/s 710 mmHg 76%
    12:00 +1°C° 0.3 mm 3 m/s 709 mmHg 79%
    13:00 +1°C° 0.3 mm 3 m/s 709 mmHg 83%
    14:00 +1°C° 1.2 mm 3 m/s 708 mmHg 86%
    15:00 +1°C° 1.2 mm 3 m/s 708 mmHg 90%
    16:00 +1°C° 1.2 mm 3 m/s 708 mmHg 94%
    17:00 +1°C° 0.9 mm 3 m/s 708 mmHg 94%
    18:00 +2°C° 0.9 mm 3 m/s 708 mmHg 94%
    19:00 +1°C° 0.9 mm 4 m/s 708 mmHg 94%
    20:00 +1°C° 0.4 mm 4 m/s 709 mmHg 95%
    21:00 +1°C° 0.4 mm 4 m/s 709 mmHg 95%
    22:00 +3°C° 0.4 mm 4 m/s 710 mmHg 96%
    23:00 +3°C° 0.1 mm 3 m/s 710 mmHg 96%

    1 Fevereiro, Sábado

    Tempo Temperatura Precipitação Vento Pressão Humidade
    00:00 +2°C° 0.1 mm 3 m/s 710 mmHg 97%
    01:00 +3°C° 0.1 mm 2 m/s 711 mmHg 97%
    02:00 +3°C° 0.1 mm 2 m/s 711 mmHg 97%
    03:00 +3°C° 0.1 mm 2 m/s 711 mmHg 97%
    04:00 +3°C° 0.1 mm 2 m/s 711 mmHg 97%
    05:00 +3°C° 0 mm 2 m/s 712 mmHg 96%
    06:00 +3°C° 0 mm 2 m/s 712 mmHg 95%
    07:00 +3°C° 0 mm 2 m/s 712 mmHg 95%
    08:00 +4°C° 0 mm 2 m/s 712 mmHg 93%
    09:00 +4°C° 0 mm 2 m/s 713 mmHg 92%
    10:00 +5°C° 0 mm 2 m/s 713 mmHg 90%
    11:00 +5°C° 0 mm 2 m/s 713 mmHg 89%
    12:00 +6°C° 0 mm 2 m/s 713 mmHg 88%
    13:00 +6°C° 0 mm 2 m/s 712 mmHg 86%
    14:00 +6°C° 0 mm 2 m/s 712 mmHg 87%
    15:00 +5°C° 0 mm 2 m/s 712 mmHg 88%
    16:00 +5°C° 0 mm 2 m/s 712 mmHg 89%
    17:00 +5°C° 0.1 mm 2 m/s 712 mmHg 90%
    18:00 +4°C° 0.1 mm 2 m/s 712 mmHg 91%
    19:00 +4°C° 0.1 mm 2 m/s 712 mmHg 92%
    20:00 +4°C° 0 mm 2 m/s 712 mmHg 91%
    21:00 +3°C° 0 mm 2 m/s 712 mmHg 91%
    22:00 +3°C° 0 mm 2 m/s 712 mmHg 91%
    23:00 +3°C° 0 mm 2 m/s 712 mmHg 91%
    Mostrar mais